Location: Old Broadwell Mill Observatory
(33.8015°N, 85.8137°W)
Time: 12:35:14
(UTC-05:00)

Daily predictions for brighter satellites

Satellite Brightness Start Highest point End
(mag) Time Altitude Azimuth Time Altitude Azimuth Time Altitude Azimuth
ATLAS 3B CENTAUR R/B 4.4 18:26:03 10° SSW 18:27:36 12° S 18:29:34 10° SSE
SL-16 R/B 3.4 18:23:09 10° NNW 18:28:34 48° WSW 18:33:59 10° S
Cosmos 1703 3.2 18:28:36 10° N 18:32:30 65° E 18:36:21 10° SSE
PSLV R/B 3.5 18:30:46 10° SW 18:33:48 46° SSE 18:36:41 11° ENE
Cosmos 2366 rocket 4.4 18:27:46 10° SSW 18:33:57 69° W 18:40:07 10° N
Cosmos 1908 3.3 18:30:33 10° S 18:34:21 55° E 18:38:11 10° NNE
RESURS DK-1 2.3 18:34:20 10° NNW 18:38:28 72° ENE 18:42:33 10° SSE
OAO 1 Rocket 4.5 18:34:05 10° W 18:39:23 80° N 18:44:19 12° E
COSMO-SKYMED 1 2.5 18:35:07 10° NNE 18:39:26 68° E 18:43:45 10° S
Ariane Rocket 4.2 18:34:50 10° S 18:39:44 48° W 18:44:40 10° NNW
Cosmos 2237 4.4 18:34:16 10° N 18:39:49 49° ENE 18:45:19 10° SE
Cosmos 1626 2.5 18:36:33 10° NNW 18:40:16 67° W 18:43:58 10° S
Atlas Centaur 2 2.5 18:39:11 10° W 18:43:12 43° S 18:48:11 10° ESE
Cosmos 2237 Rocket 4.0 18:42:32 10° NE 18:44:13 11° NE 18:45:24 11° ENE
Cosmos 2227 Rocket 3.4 18:44:18 10° SE 18:48:17 20° E 18:52:07 11° NE
USA 267 4.4 18:45:00 11° ENE 18:49:40 23° ESE 18:54:39 10° S
Cosmos 2151 3.2 18:46:49 10° N 18:51:04 73° W 18:55:16 10° S
Cosmos 1805 Rocket 4.3 18:47:22 10° NNE 18:51:14 30° ENE 18:55:06 10° SE
Molniya-1 4.2 18:50:07 10° SSE 18:51:00 16° SE 18:51:00 16° SE
YAOGAN 1 3.1 18:53:02 10° S 18:57:18 64° WSW 19:01:37 10° NNW
Cosmos 2058 3.6 18:53:50 10° NNW 18:57:56 59° W 19:01:59 10° S
Cosmos 1400 Rocket 4.4 18:56:02 10° NNW 18:59:45 38° W 19:03:24 10° SSW
ALOS 2.4 18:56:08 10° SSE 19:00:37 49° ENE 19:05:07 10° N
Cosmos 1300 3.4 18:57:49 10° SSE 19:01:13 31° E 19:04:38 10° NNE
Cosmos 1269 Rocket 4.0 18:56:56 10° SSW 19:02:12 86° ESE 19:07:30 10° NNE
GRACE-2 4.5 18:59:45 10° S 19:02:15 53° W 19:04:47 10° NNW
Cosmos 2360 Rocket 2.8 19:00:14 10° NNW 19:05:49 62° WSW 19:11:23 10° S
Cosmos 1633 Rocket 4.2 19:02:33 10° NNE 19:06:02 22° ENE 19:06:13 22° E
DMSP B5D1-3 4.4 19:02:20 10° NNE 19:07:29 81° ESE 19:12:38 10° S
MOS 1 4.4 19:01:52 10° S 19:07:31 80° WSW 19:13:13 10° NNW
Cosmos 1821 Rocket 3.9 19:03:50 10° S 19:09:56 72° E 19:16:09 10° N
Cosmos 1934 Rocket 4.1 19:03:53 10° SSE 19:10:00 53° E 19:16:10 10° NNE
SPOT 3 Rocket 3.6 19:06:00 10° SSE 19:11:11 88° W 19:16:26 10° NNW
Cosmos 1000 Rocket 4.4 19:06:55 10° N 19:13:06 69° E 19:19:13 10° SSE
Aureole 2 Rocket 3.3 19:11:49 10° N 19:15:33 37° ENE 19:16:42 30° ESE
Cosmos 2239 Rocket 4.4 19:09:49 10° S 19:15:56 81° E 19:22:05 10° N
COSMOS 2428 2.6 19:10:51 10° NNW 19:16:32 67° ENE 19:22:10 10° SSE
Cosmos 2219 3.5 19:11:40 10° SSW 19:17:23 71° WNW 19:23:08 10° NNE
CZ-4 R/B 4.1 19:14:34 10° SSW 19:17:55 23° W 19:21:14 10° NW
FENGYUN 3A 3.5 19:12:56 10° SSE 19:18:18 74° ENE 19:23:42 10° N
Hubble Space Telescope 2.2 19:15:04 10° SW 19:18:29 25° SSE 19:19:41 22° SE
Cosmos 1452 Rocket 4.4 19:14:20 10° NNW 19:19:25 51° WSW 19:24:29 10° S
Cosmos 2333 Rocket 2.8 19:14:12 10° N 19:19:28 35° ENE 19:21:36 27° ESE
Cosmos 2221 3.7 19:19:03 10° SSW 19:23:10 44° W 19:27:19 10° N
Iridium 4 Rocket 3.9 19:17:53 10° S 19:23:23 79° W 19:29:15 10° N
BREEZE-M R/B 2.1 19:21:52 10° SW 19:24:20 74° NW 19:25:04 46° NNE
Cosmos 2297 Rocket 2.7 19:20:24 10° SSE 19:25:29 36° ESE 19:27:02 30° ENE
Delta 2 Rocket 2.9 19:21:55 10° WNW 19:25:46 78° N 19:26:27 55° E
Cosmos 494 Rocket 4.0 19:21:32 10° S 19:26:30 54° ESE 19:30:46 14° NNE
Cosmos 2098 Rocket 3.6 19:22:15 10° SSW 19:26:33 70° W 19:32:07 10° N
Meteor 2-10 3.8 19:28:51 10° S 19:33:52 83° E 19:38:59 10° N
Cosmos 2082 4.0 19:29:32 10° S 19:34:54 43° ESE 19:36:17 37° ENE
Meteor 2-2 Rocket 4.2 19:29:56 10° S 19:35:32 61° E 19:41:06 10° NNE
FALCON 9 R/B 4.0 19:35:29 10° SSW 19:35:48 10° SSW 19:36:10 10° S
Cosmos 1110 Rocket 4.3 19:31:14 10° N 19:36:16 42° ENE 19:36:35 41° E
Cosmos 1726 3.4 19:35:25 10° SSW 19:38:55 40° W 19:42:25 10° N
FengYun 1-2 T 4.1 19:35:46 10° SSE 19:41:13 69° ENE 19:46:40 10° N
ASTRO E2 3.8 19:39:48 10° W 19:43:26 33° SSW 19:44:03 31° S
Cosmos 1605 Rocket 3.8 19:38:20 10° S 19:44:23 68° E 19:50:26 10° NNE
Cosmos 2123 Rocket 3.9 19:38:35 10° N 19:44:49 70° E 19:51:05 10° SSE
ATLAS 2A CENTAUR R/B 3.2 19:43:16 10° SSW 19:43:20 11° SSW 19:43:20 11° SSW
Cosmos 2219 Rocket 2.0 19:47:33 10° NNW 19:53:11 84° ENE 19:55:33 37° SSE
Cosmos 2251 Rocket 3.3 19:50:16 10° S 19:55:31 75° ESE 19:56:38 55° NE
DELTA 2 R/B (1) 3.8 19:55:23 10° WNW 20:00:53 63° SSW 20:01:54 53° SSE
MOS 1-B Rocket 4.0 20:09:37 55° NNE 20:09:37 55° NNE 20:14:35 10° N
CZ-4C R/B 4.2 20:05:04 10° W 20:09:13 23° NW 20:13:46 10° N
NOSS 0 Rocket 3.7 20:04:43 10° NNW 20:10:54 86° ENE 20:11:40 70° SSE
Sich 1 4.3 20:10:59 10° NNW 20:15:06 40° W 20:18:38 13° SSW
H-2A R/B 4.5 20:19:07 32° WNW 20:19:07 32° WNW 20:22:04 10° NNW
Cosmos 2237 Rocket 2.9 20:23:20 10° NNW 20:27:16 46° NNW 20:27:16 46° NNW
Atlas Centaur 2 3.8 20:28:03 10° WSW 20:31:24 22° SSW 20:31:24 22° SSW
Cosmos 2227 Rocket 3.1 20:26:31 10° SW 20:31:54 45° WNW 20:34:03 31° NNW
USA 267 3.2 20:32:24 71° N 20:32:58 76° NW 20:39:28 10° SW
Gbstr 26 Del rocket 4.1 20:28:29 10° NW 20:33:16 65° W 20:33:16 65° W
SL-16 R/B 4.4 20:35:45 10° N 20:36:39 15° N 20:36:39 15° N
Cosmos 2333 Rocket 4.0 20:58:46 10° NW 21:03:30 27° WSW 21:03:41 27° WSW
Centaur D AC-28 3.8 21:00:05 10° WSW 21:42:12 10° E 21:03:29 46° SSW
Centaur D AC-28 3.8 21:00:05 10° WSW 21:42:11 10° E 21:03:28 46° SSW
Centaur D AC-28 3.8 21:00:05 10° WSW 21:42:11 10° E 21:03:29 46° SSW
Centaur D AC-28 3.8 21:00:05 10° WSW 21:42:10 10° E 21:03:28 46° SSW
Centaur D AC-28 3.8 21:00:05 10° WSW 21:42:09 10° E 21:03:28 46° SSW
Cosmos 2297 Rocket 4.1 21:04:51 10° WSW 21:08:58 26° WNW 21:08:58 26° WNW
